Date String (YYYY-MM-DD hh:mm:ss) UTC,Instrument flags,Ambient pressure (hPa),Sample flow (lpm),Bypass flow (lpm),Sample temperature (°C),Ambient temperature (°C),ASC tube jacket temperature (°C),LED temperature (°C),Box temperature (°C),Sample RH (%),Span deviation,Mass concentration (μg/m³),Mass concentration (μg/m³),Mass concentration (μg/m³)
DateTimeUTC,F1_M11,P_M11,Q1_M11,Q2_M11,T1_M11,T2_M11,T3_M11,T4_M11,T5_M11,U1_M11,ZSPAN_M11,X2_M11,X0_M11,X1_M11
2021-11-27 10:00:00,,0826.2,5.01,0.00,27.8,26.8,00.0,36.9,29.4,08.0,0000.0,0000.83,0001.62,0000.57
2021-11-27 10:01:00,,0826.2,5.00,0.00,27.8,26.8,00.0,36.8,29.4,08.0,0000.0,0000.81,0001.69,0000.56
2021-11-27 10:02:00,,0826.2,4.98,0.00,27.8,26.7,00.0,36.8,29.3,08.0,0000.0,0000.79,0001.63,0000.55
2021-11-27 10:03:00,,0826.4,5.00,0.00,27.7,26.7,00.0,36.8,29.3,08.0,0000.0,0000.80,0001.73,0000.57
2021-11-27 10:04:00,,0826.5,5.01,0.00,27.8,26.7,00.0,36.8,29.4,08.0,0000.0,0000.81,0001.84,0000.58
2021-11-27 10:05:00,,0826.5,5.00,0.00,27.7,26.7,00.0,36.8,29.4,07.9,0000.0,0000.85,0001.96,0000.58
2021-11-27 10:06:00,,0826.5,5.00,0.00,27.7,26.6,00.0,36.8,29.4,07.9,0000.0,0000.85,0001.98,0000.57
2021-11-27 10:07:00,,0826.6,5.00,0.00,27.7,26.7,00.0,36.8,29.4,08.0,0000.0,0000.85,0001.98,0000.57
2021-11-27 10:08:00,,0826.5,4.99,0.00,27.7,26.7,00.0,36.8,29.3,08.0,0000.0,0000.83,0001.94,0000.57
2021-11-27 10:09:00,,0826.6,5.00,0.00,27.7,26.7,00.0,36.8,29.4,08.0,0000.0,0000.81,0001.88,0000.57
2021-11-27 10:10:00,,0826.7,5.00,0.00,27.7,26.7,00.0,36.8,29.4,08.0,0000.0,0000.79,0001.73,0000.57
2021-11-27 10:11:00,,0826.7,5.02,0.00,27.7,26.7,00.0,36.8,29.4,08.0,0000.0,0000.80,0001.65,0000.58
2021-11-27 10:12:00,,0826.7,4.99,0.00,27.7,26.7,00.0,36.8,29.4,08.0,0000.0,0000.81,0001.55,0000.57
2021-11-27 10:13:00,,0826.7,4.98,0.00,27.7,26.7,00.0,36.8,29.4,08.0,0000.0,0000.87,0001.68,0000.58
2021-11-27 10:14:00,,0826.7,5.01,0.00,27.7,26.8,00.0,36.8,29.4,08.0,0000.0,0000.87,0001.67,0000.58
2021-11-27 10:15:00,,0826.7,4.99,0.00,27.7,26.8,00.0,36.8,29.4,08.0,0000.0,0000.85,0001.63,0000.57
2021-11-27 10:16:00,,0826.7,5.00,0.00,27.7,26.7,00.0,36.8,29.4,08.0,0000.0,0000.81,0001.50,0000.56
2021-11-27 10:17:00,,0826.8,5.00,0.00,27.7,26.7,00.0,36.8,29.4,08.0,0000.0,0000.82,0001.56,0000.56
2021-11-27 10:18:00,,0826.8,4.98,0.00,27.7,26.7,00.0,36.8,29.4,08.0,0000.0,0000.81,0001.55,0000.56
2021-11-27 10:19:00,,0826.8,5.00,0.00,27.7,26.7,00.0,36.8,29.3,08.0,0000.0,0000.81,0001.76,0000.56
2021-11-27 10:20:00,,0827.3,5.01,0.00,27.7,26.7,00.0,36.8,29.3,08.0,0000.0,0000.82,0002.96,0000.57
2021-11-27 10:21:00,,0827.0,4.98,0.00,27.7,26.6,00.0,36.8,29.3,08.0,0000.0,0000.84,0003.02,0000.57
2021-11-27 10:22:00,,0826.9,5.00,0.00,27.7,26.7,00.0,36.8,29.4,08.0,0000.0,0000.85,0003.03,0000.57
2021-11-27 10:23:00,,0826.9,5.01,0.00,27.7,26.7,00.0,36.8,29.4,08.0,0000.0,0000.85,0003.02,0000.57
2021-11-27 10:24:00,,0826.9,4.99,0.00,27.7,26.7,00.0,36.8,29.4,08.1,0000.0,0000.81,0002.92,0000.57
2021-11-27 10:25:00,,0827.0,5.00,0.00,27.7,26.7,00.0,36.8,29.3,08.1,0000.0,0000.81,0002.89,0000.57
2021-11-27 10:26:00,,0826.9,5.00,0.00,27.7,26.6,00.0,36.8,29.3,08.1,0000.0,0000.84,0002.82,0000.57
2021-11-27 10:27:00,,0826.9,5.01,0.00,27.6,26.6,00.0,36.8,29.3,08.1,0000.0,0000.87,0002.90,0000.58
2021-11-27 10:28:00,,0826.9,4.99,0.00,27.6,26.6,00.0,36.8,29.3,08.1,0000.0,0000.86,0002.78,0000.59
2021-11-27 10:29:00,,0826.9,5.01,0.00,27.6,26.5,00.0,36.7,29.3,08.1,0000.0,0000.88,0002.81,0000.59
2021-11-27 10:30:00,,0826.9,4.99,0.00,27.6,26.6,00.0,36.7,29.3,08.1,0000.0,0000.88,0002.71,0000.59
2021-11-27 10:31:00,,0826.9,5.01,0.00,27.6,26.6,00.0,36.7,29.3,08.1,0000.0,0000.88,0001.45,0000.58
2021-11-27 10:32:00,,0826.9,4.98,0.00,27.6,26.6,00.0,36.7,29.4,08.1,0000.0,0000.88,0001.44,0000.59
2021-11-27 10:33:00,,0826.9,5.01,0.00,27.6,26.7,00.0,36.7,29.4,08.1,0000.0,0000.88,0001.46,0000.59
2021-11-27 10:34:00,,0826.9,5.00,0.00,27.7,26.7,00.0,36.7,29.5,08.0,0000.0,0000.87,0001.52,0000.59
2021-11-27 10:35:00,,0826.9,5.00,0.00,27.7,26.7,00.0,36.7,29.4,08.0,0000.0,0000.88,0001.84,0000.59
2021-11-27 10:36:00,,0826.9,5.00,0.00,27.7,26.7,00.0,36.7,29.5,08.0,0000.0,0000.88,0001.84,0000.60
2021-11-27 10:37:00,,0827.0,5.00,0.00,27.7,26.8,00.0,36.7,29.5,07.9,0000.0,0000.90,0001.95,0000.61
2021-11-27 10:38:00,,0827.1,5.01,0.00,27.7,26.8,00.0,36.7,29.5,07.7,0000.0,0000.91,0002.03,0000.61
2021-11-27 10:39:00,,0826.8,5.01,0.00,27.7,26.8,00.0,36.7,29.4,07.5,0000.0,0000.98,0002.15,0000.63
2021-11-27 10:40:00,,0826.9,5.00,0.00,27.6,26.7,00.0,36.7,29.4,07.5,0000.0,0001.02,0002.23,0000.64
2021-11-27 10:41:00,,0827.0,5.00,0.00,27.6,26.7,00.0,36.7,29.4,07.5,0000.0,0001.08,0002.36,0000.65
2021-11-27 10:42:00,,0826.9,5.00,0.00,27.6,26.7,00.0,36.7,29.4,07.5,0000.0,0001.13,0002.48,0000.67
2021-11-27 10:43:00,,0827.1,5.00,0.00,27.6,26.7,00.0,36.7,29.4,07.5,0000.0,0001.22,0002.67,0000.68
2021-11-27 10:44:00,,0827.1,4.99,0.00,27.6,26.7,00.0,36.7,29.3,07.5,0000.0,0001.29,0002.95,0000.71
2021-11-27 10:45:00,,0827.0,5.01,0.00,27.6,26.7,00.0,36.7,29.3,07.4,0000.0,0001.40,0003.67,0000.77
2021-11-27 10:46:00,,0827.0,4.99,0.00,27.6,26.7,00.0,36.7,29.3,07.4,0000.0,0001.47,0003.50,0000.83
2021-11-27 10:47:00,,0826.9,5.00,0.00,27.6,26.6,00.0,36.7,29.3,07.4,0000.0,0001.51,0003.58,0000.87
2021-11-27 10:48:00,,0827.0,5.01,0.00,27.5,26.6,00.0,36.6,29.3,07.5,0000.0,0001.57,0003.65,0000.91
2021-11-27 10:49:00,,0827.3,5.00,0.00,27.5,26.6,00.0,36.6,29.3,07.5,0000.0,0001.59,0003.70,0000.95
2021-11-27 10:50:00,,0827.1,5.00,0.00,27.5,26.6,00.0,36.6,29.3,07.5,0000.0,0001.59,0004.92,0000.97
2021-11-27 10:51:00,,0827.0,5.00,0.00,27.5,26.6,00.0,36.6,29.3,07.5,0000.0,0001.66,0005.05,0000.99
2021-11-27 10:52:00,,0827.1,5.01,0.00,27.5,26.6,00.0,36.6,29.3,07.5,0000.0,0001.69,0005.11,0001.02
2021-11-27 10:53:00,,0827.4,4.98,0.00,27.5,26.6,00.0,36.6,29.3,07.4,0000.0,0001.73,0005.41,0001.04
2021-11-27 10:54:00,,0827.2,5.00,0.00,27.5,26.6,00.0,36.6,29.3,07.4,0000.0,0001.71,0006.17,0001.06
2021-11-27 10:55:00,,0827.2,5.01,0.00,27.5,26.6,00.0,36.6,29.3,07.4,0000.0,0001.70,0006.05,0001.07
2021-11-27 10:56:00,,0827.2,5.00,0.00,27.5,26.5,00.0,36.6,29.2,07.5,0000.0,0001.74,0005.66,0001.06
2021-11-27 10:57:00,,0827.3,4.98,0.00,27.4,26.5,00.0,36.6,29.2,07.5,0000.0,0001.79,0005.80,0001.07
2021-11-27 10:58:00,,0827.2,5.01,0.00,27.4,26.4,00.0,36.5,29.1,07.5,0000.0,0001.88,0006.14,0001.09
2021-11-27 10:59:00,,0827.3,4.99,0.00,27.4,26.4,00.0,36.5,29.1,07.5,0000.0,0001.92,0006.15,0001.10
